map of SPP home
SPP - Airport
Location
City:  Menongue, Kuando Kubango, Angola
Name:Serp Pinto
ICAO:FNME
IATA:SPP

Details
Type:Airport (Aerodrome, Airfield)
Latitude:1439'27"S (-14.657582)
Longitude:1743'11"E (17.719833)
Datum:WGS 1984
Elevation:4469 ft (1362 m)
Variation:4.91W (WMM2015v2 magnetic declination)
0.13 annual change
Runways:1
Longest:11483 × 147 ft (3500 × 45 m), paved

Time
Time Zone:UTC+1
Local Time:

Weather
TAF:FNME 032245Z 0400/0412 VRB03KT 5000 RADZ BR SCT012 FEW016CB BKN020
BECMG 0406/0408 9999 NSW SCT015 BKN050 PROB30
TEMPO 0408/0412 09008KT 7000 -TSRA BKN020 FEW023CB

Related Locations
Nearby:
Farthest:PAK: 11904 mi / 19157 km
Hanapepe [Port Allen Airport], Kauai, HI, US

Find:

   beyond  
but within

Other Information
Maps:
NOTAMs:
Links:
Sources:

  
  • flag of Angola
  

Sectional Chart

Flight Planning
at skyvector.com

Satellite Image

Google Maps Satellite view

 

Copyright © 2004-2019 Karl L. Swartz. All rights reserved.
The Great Circle Mapper name and logo are trademarks of the Great Circle Mapper.
All other trademarks mentioned herein belong to their respective owners.
Please see credits for attibutions and further copyright information.

  Follow gcmap on Facebook Follow gcmap on Twitter GCmap on LinkedIn

hCard Microformat

Geo Microformat